User: anonymous
Location: Unspecified
(0.0000°N, 0.0000°E)
Time: 21:01:48
(UTC+00:00)
Language:

Optus B1 - Orbit

View from above orbital plane
View from above orbital plane
View from above satellite
View from above satellite

Ground track
Ground track

The orbit data is extracted from the following two-line orbital elements,

1 22087U 92054A   14244.13514293 -.00000252  00000-0  00000+0 0  9766
2 22087 007.0311 054.8877 0010997 046.2560 266.8334 00.99208756 91975
Epoch (UTC): 01 September 2014 03:14:36
Eccentricity: 0.0010997
inclination: 7.0311°
perigee height: 36040 km
apogee height: 36133 km
right ascension of ascending node: 54.8877°
argument of perigee: 46.2560°
revolutions per day: 0.99208756
mean anomaly at epoch: 266.8334°
orbit number at epoch: 9197

The dashed part of the orbit path shows where the satellite is in the earth's shadow,  

DLR